Regional Weather Roundup
Issued by NWS Albany, NY

Home | Current Version | Previous Version | Text Only | Print | Product List | Glossary On
Versions: 1 2 3 4 5 6 7 8 9 10 11 12 13 14 15 16 17 18 19 20 21 22 23 24 25 26 27 28
000
ASUS41 KALY 240610
RWRALY

NEW YORK STATE HOURLY WEATHER ROUNDUP
NATIONAL WEATHER SERVICE ALBANY NY
200 AM EDT FRI MAR 24 2017

NOTE: "FAIR" INDICATES FEW OR NO CLOUDS BELOW 12,000 FEET WITH NO
SIGNIFICANT WEATHER AND/OR NO OBSTRUCTIONS TO VISIBILITY.

NYZ032-033-038>043-046>054-057>066-NYZ062>081-082-084-240700-
EAST


CITY           SKY/WX    TMP DP  RH WIND       PRES   REMARKS
ALBANY         CLOUDY    28  11  48 S5        30.47F WCI  23
GLENS FALLS    CLOUDY    26  16  65 S3        30.46F
POUGHKEEPSIE   PTCLDY    24  15  68 CALM      30.50S
NEWBURGH       CLEAR     28  16  59 CALM      30.50S
MONTGOMERY     PTCLDY    24  15  68 CALM      30.49S
WHITE PLAINS   CLOUDY    28  21  75 CALM      30.49F
ISLIP          CLEAR     26  22  84 CALM      30.52F
NEW YORK CITY  PTCLDY    39  21  48 S6        30.52F WCI  35
CENTRAL PARK   CLEAR     37  18  46 S3        30.53F
$$

NYZ005>009-017-018-044>046-055-056-240700-
CENTRAL


CITY           SKY/WX    TMP DP  RH WIND       PRES   REMARKS
FULTON         CLOUDY    31  12  45 SE8       30.32F WCI  23
SYRACUSE       CLOUDY    31  12  45 E9        30.34F WCI  23
ROME           CLOUDY    28  12  51 E6        30.42S WCI  22
ELMIRA         CLOUDY    34  12  40 SE5       30.34F WCI  30
BINGHAMTON     CLOUDY    29   7  39 S9        30.35S WCI  20
MONTICELLO     CLOUDY    21   9  58 CALM      30.45R
$$

NYZ026>034-041>043-087-240700-
NORTH


CITY           SKY/WX    TMP DP  RH WIND       PRES   REMARKS
WATERTOWN      CLOUDY    33   9  36 SE6       30.32F WCI  28
FORT DRUM      NOT AVBL
MASSENA        CLOUDY    28  15  58 S3        30.37F
SARANAC LAKE   CLOUDY    22   8  55 S5        30.28F WCI  16
PLATTSBURGH    CLOUDY    27   7  42 SW5       30.41F WCI  22
$$

NYZ001>004-010>016-019>021-085-240700-
WEST


CITY           SKY/WX    TMP DP  RH WIND       PRES   REMARKS
NIAGARA FALLS  CLOUDY    36  18  48 SE3       30.21F
BUFFALO        CLOUDY    37  13  37 S6        30.21F WCI  32
DUNKIRK        CLOUDY    42  11  28 S21G29    30.20F
JAMESTOWN      CLOUDY    36   7  30 S9        30.20F WCI  29
WELLSVILLE     CLOUDY    35   7  31 S10G25    30.24F WCI  27
ROCHESTER      CLOUDY    36  16  44 S5        30.26F WCI  32
PENN YAN       CLOUDY    35  15  44 S8G17     30.29F WCI  29
$$

             KEY
       WCI = WIND CHILL INDEX
       VSB = VISIBILITY
       HX  = HEAT INDEX
$$




USA.gov is the U.S. government's official web portal to all federal, state and local government web resources and services.